Location: Cañada de la Miga
(34.7595°N, 106.2317°W)
Time: 02:05:30
(UTC+00:00)

S-56A Canister/Altair - Visible Passes

Search period start: 28 November 2021 00:00
Search period end: 08 December 2021 00:00
Orbit: 633 x 2500 km, 38.9° (Epoch: 27 November)

Date Brightness Start Highest point End Pass type
(mag) Time Alt. Az. Time Alt. Az. Time Alt. Az.
28 Nov 10.3 10:30:12 11° ENE 10:30:12 11° ENE 10:30:24 10° ENE visible
28 Nov 7.3 12:27:39 30° WNW 12:29:50 64° NNE 12:34:14 10° E visible
29 Nov 7.4 11:56:48 56° NNW 11:57:19 60° N 12:01:42 10° E visible
30 Nov 8.2 11:25:58 44° ENE 11:25:58 44° ENE 11:29:13 10° E visible
30 Nov 7.6 13:23:57 10° WNW 13:28:26 52° SSW 13:32:50 10° SE visible
01 Dec 9.5 10:55:09 22° ENE 10:55:09 22° ENE 10:56:47 10° E visible
01 Dec 7.3 12:52:35 18° WNW 12:56:01 62° SSW 13:00:23 10° SE visible
02 Dec 10.4 10:24:20 10° E 10:24:20 10° E 10:24:23 10° E visible
02 Dec 7.2 12:21:46 38° W 12:23:34 73° SSW 12:27:57 10° ESE visible
03 Dec 7.1 11:50:58 83° WSW 11:51:06 84° SSW 11:55:34 10° ESE visible
04 Dec 11.3 02:55:13 10° SSE 02:55:38 10° SSE 02:55:38 10° SSE visible
04 Dec 8.4 11:20:12 43° ESE 11:20:12 43° ESE 11:23:11 10° ESE visible
04 Dec 8.8 13:18:10 10° W 13:21:44 21° SW 13:25:05 10° SSE visible
05 Dec 11.2 04:20:02 10° SSW 04:22:25 16° SSW 04:22:25 16° SSW visible
05 Dec 9.7 10:49:27 20° ESE 10:49:27 20° ESE 10:50:48 10° ESE visible
05 Dec 8.5 12:46:53 18° W 12:49:19 26° SW 12:53:03 10° SSE visible
06 Dec 10.9 03:46:50 10° SSW 03:51:46 22° S 03:51:46 22° S visible
06 Dec 8.2 12:16:09 31° SW 12:16:55 33° SW 12:20:57 10° SSE visible
07 Dec 10.7 03:13:44 10° SSW 03:21:09 26° S 03:21:09 26° S visible
07 Dec 11.5 05:17:52 10° SW 05:18:36 12° SW 05:18:36 12° SW visible
07 Dec 8.3 11:45:27 37° S 11:45:27 37° S 11:48:49 10° SE visible
